| time (UTC) | temp F | wind direction | speed knots | gust knots | rain 1hr in | rain 24hr in | rain mn in | humidity % | barometer mb |
| 20260509043624 | 71 | 75 | 0.0 | 0.9 | 0.00 | 1.16 | 1.16 | 86 | 1008.3 |
| 20260509043120 | 71 | 79 | 0.0 | 0.9 | 0.00 | 1.16 | 1.16 | 85 | 1008.2 |
| 20260509042617 | 71 | 84 | 0.0 | 0.9 | 0.00 | 1.16 | 1.16 | 85 | 1008.2 |
| 20260509042112 | 71 | 81 | 0.0 | 0.9 | 0.00 | 1.16 | 1.16 | 85 | 1008.3 |
| 20260509041610 | 71 | 74 | 0.0 | 1.7 | 0.00 | 1.16 | 1.16 | 85 | 1008.1 |
| 20260509041107 | 71 | 67 | 1.7 | 1.7 | 0.00 | 1.16 | 1.16 | 84 | 1007.7 |
| 20260509040606 | 71 | 83 | 0.9 | 2.6 | 0.00 | 1.16 | 1.16 | 84 | 1007.5 |
| 20260509035559 | 71 | 105 | 0.0 | 4.3 | 0.00 | 1.16 | 1.16 | 84 | 1008.0 |
| 20260509035055 | 71 | 83 | 0.9 | 2.6 | 0.00 | 1.16 | 1.16 | 84 | 1007.2 |
| 20260509034553 | 72 | 99 | 0.9 | 1.7 | 0.00 | 1.16 | 1.16 | 83 | 1007.4 |
| 20260509034050 | 72 | 102 | 1.7 | 2.6 | 0.00 | 1.16 | 1.16 | 82 | 1008.0 |
| 20260509033547 | 72 | 104 | 0.9 | 0.9 | 0.00 | 1.16 | 1.16 | 82 | 1008.7 |
| 20260509033044 | 72 | 79 | 0.0 | 0.0 | 0.00 | 1.16 | 1.16 | 82 | 1009.2 |
| 20260509032542 | 72 | 77 | 0.0 | 0.0 | 0.00 | 1.16 | 1.16 | 81 | 1009.2 |
| 20260509032038 | 72 | 77 | 0.0 | 0.0 | 0.00 | 1.16 | 1.16 | 81 | 1009.1 |
| 20260509031536 | 72 | 75 | 0.0 | 0.0 | 0.00 | 1.16 | 1.16 | 81 | 1008.6 |
| 20260509031033 | 72 | 75 | 0.0 | 0.0 | 0.00 | 1.16 | 1.16 | 81 | 1008.4 |
| 20260509030531 | 72 | 73 | 0.0 | 0.0 | 0.00 | 1.16 | 1.16 | 81 | 1008.6 |
| 20260509030028 | 71 | 81 | 0.0 | 0.0 | 0.00 | 1.16 | 1.16 | 81 | 1008.7 |
| 20260509025524 | 71 | 71 | 0.0 | 0.9 | 0.00 | 1.16 | 1.16 | 81 | 1008.4 |
| 20260509025020 | 71 | 78 | 0.0 | 0.0 | 0.00 | 1.16 | 1.16 | 81 | 1008.6 |
| 20260509024516 | 71 | 78 | 0.0 | 0.0 | 0.00 | 1.16 | 1.16 | 81 | 1008.5 |
| 20260509024012 | 71 | 76 | 0.0 | 0.0 | 0.00 | 1.16 | 1.16 | 81 | 1008.3 |
| 20260509023510 | 72 | 76 | 0.0 | 0.0 | 0.00 | 1.16 | 1.16 | 80 | 1008.3 |
| 20260509023006 | 72 | 65 | 0.9 | 0.9 | 0.00 | 1.16 | 1.16 | 80 | 1008.0 |
| 20260509022503 | 72 | 73 | 0.0 | 0.9 | 0.00 | 1.16 | 1.16 | 80 | 1007.8 |
| 20260509022001 | 72 | 89 | 0.9 | 1.7 | 0.00 | 1.16 | 1.16 | 80 | 1007.4 |
| 20260509021457 | 72 | 97 | 0.9 | 1.7 | 0.00 | 1.16 | 1.16 | 79 | 1007.0 |
| 20260509020954 | 72 | 134 | 1.7 | 2.6 | 0.00 | 1.16 | 1.16 | 79 | 1007.1 |
| 20260509020453 | 72 | 87 | 0.0 | 1.7 | 0.00 | 1.16 | 1.16 | 79 | 1007.1 |
| 20260509015949 | 72 | 94 | 0.9 | 1.7 | 0.00 | 1.16 | 1.16 | 79 | 1007.1 |
| 20260509015448 | 72 | 87 | 0.0 | 0.9 | 0.00 | 1.16 | 1.16 | 79 | 1007.1 |
| 20260509014945 | 72 | 102 | 0.0 | 0.9 | 0.00 | 1.16 | 1.16 | 78 | 1007.2 |
| 20260509014441 | 72 | 134 | 0.0 | 1.7 | 0.00 | 1.16 | 1.16 | 78 | 1007.0 |
| 20260509013938 | 72 | 108 | 0.9 | 0.9 | 0.00 | 1.16 | 1.16 | 78 | 1007.0 |
| 20260509013435 | 73 | 106 | 0.9 | 1.7 | 0.00 | 1.16 | 1.16 | 77 | 1006.6 |
| 20260509012931 | 73 | 87 | 0.9 | 1.7 | 0.00 | 1.16 | 1.16 | 77 | 1006.8 |
| 20260509012427 | 73 | 147 | 3.5 | 5.2 | 0.00 | 1.16 | 1.16 | 77 | 1006.9 |
| 20260509011924 | 73 | 88 | 0.0 | 0.9 | 0.00 | 1.16 | 1.16 | 76 | 1007.1 |
| 20260509011422 | 73 | 87 | 0.0 | 0.0 | 0.00 | 1.16 | 1.16 | 76 | 1006.8 |
| 20260509010920 | 73 | 94 | 0.9 | 1.7 | 0.00 | 1.16 | 1.16 | 76 | 1006.9 |
| 20260509010417 | 73 | 93 | 0.9 | 0.9 | 0.00 | 1.16 | 1.16 | 76 | 1006.9 |
| 20260509005913 | 73 | 86 | 0.0 | 0.9 | 0.00 | 1.16 | 1.16 | 76 | 1007.1 |
| 20260509005412 | 73 | 109 | 0.9 | 0.9 | 0.00 | 1.16 | 1.16 | 75 | 1006.9 |
| 20260509004911 | 73 | 82 | 0.9 | 2.6 | 0.00 | 1.16 | 1.16 | 75 | 1006.9 |
| 20260509004408 | 73 | 86 | 0.9 | 0.9 | 0.00 | 1.16 | 1.16 | 75 | 1006.6 |
| 20260509003906 | 74 | 97 | 0.0 | 0.9 | 0.00 | 1.16 | 1.16 | 75 | 1006.2 |
| 20260509003403 | 74 | 93 | 0.9 | 0.9 | 0.00 | 1.16 | 1.16 | 75 | 1006.5 |
| 20260509002900 | 74 | 96 | 1.7 | 1.7 | 0.00 | 1.16 | 1.16 | 74 | 1006.3 |
| 20260509002358 | 74 | 74 | 2.6 | 4.3 | 0.00 | 1.16 | 1.16 | 74 | 1006.2 |
| 20260509001855 | 74 | 93 | 0.0 | 0.9 | 0.00 | 1.16 | 1.16 | 74 | 1006.4 |
| 20260509001351 | 74 | 105 | 0.9 | 1.7 | 0.00 | 1.16 | 1.16 | 74 | 1006.4 |
| 20260509000848 | 74 | 83 | 0.0 | 1.7 | 0.00 | 1.16 | 1.16 | 74 | 1006.4 |
| 20260509000348 | 74 | 86 | 0.9 | 1.7 | 0.00 | 1.16 | 1.16 | 74 | 1006.4 |
| 20260508235842 | 74 | 87 | 0.9 | 2.6 | 0.00 | 1.16 | 1.16 | 73 | 1006.4 |
| 20260508235339 | 75 | 120 | 1.7 | 2.6 | 0.00 | 1.16 | 1.16 | 73 | 1006.5 |
| 20260508234836 | 75 | 120 | 1.7 | 2.6 | 0.00 | 1.16 | 1.16 | 72 | 1006.5 |
| 20260508234333 | 75 | 90 | 0.9 | 0.9 | 0.00 | 1.16 | 1.16 | 72 | 1006.7 |
| 20260508233831 | 76 | 100 | 1.7 | 2.6 | 0.00 | 1.16 | 1.16 | 71 | 1006.7 |
| 20260508233330 | 76 | 96 | 0.0 | 2.6 | 0.00 | 1.16 | 1.16 | 71 | 1006.6 |
| 20260508232827 | 76 | 79 | 0.9 | 1.7 | 0.00 | 1.16 | 1.16 | 71 | 1006.7 |
| 20260508232323 | 77 | 102 | 1.7 | 5.2 | 0.00 | 1.16 | 1.16 | 70 | 1006.8 |
| 20260508231822 | 77 | 95 | 0.9 | 1.7 | 0.00 | 1.16 | 1.16 | 71 | 1006.7 |
| 20260508231317 | 77 | 83 | 0.9 | 4.3 | 0.00 | 1.16 | 1.16 | 71 | 1006.6 |
| 20260508230814 | 77 | 103 | 0.9 | 2.6 | 0.00 | 1.16 | 1.16 | 71 | 1006.9 |
| 20260508230311 | 77 | 89 | 2.6 | 4.3 | 0.00 | 1.16 | 1.16 | 70 | 1006.8 |
| 20260508225809 | 77 | 90 | 0.0 | 2.6 | 0.00 | 1.16 | 1.16 | 70 | 1006.5 |
| 20260508225306 | 78 | 107 | 1.7 | 2.6 | 0.00 | 1.16 | 1.16 | 69 | 1006.9 |
| 20260508224803 | 78 | 116 | 2.6 | 4.3 | 0.00 | 1.16 | 1.16 | 69 | 1006.9 |
| 20260508224300 | 78 | 104 | 0.9 | 1.7 | 0.00 | 1.16 | 1.16 | 68 | 1007.1 |
| 20260508223758 | 79 | 83 | 0.0 | 1.7 | 0.00 | 1.16 | 1.16 | 67 | 1007.0 |
| 20260508223255 | 79 | 81 | 0.0 | 2.6 | 0.00 | 1.16 | 1.16 | 67 | 1006.7 |
| 20260508222752 | 79 | 131 | 2.6 | 2.6 | 0.00 | 1.16 | 1.16 | 65 | 1006.7 |
| 20260508222249 | 79 | 109 | 2.6 | 2.6 | 0.00 | 1.16 | 1.16 | 66 | 1006.9 |
| 20260508221746 | 80 | 113 | 0.9 | 1.7 | 0.00 | 1.16 | 1.16 | 64 | 1006.6 |
| 20260508221242 | 80 | 111 | 0.9 | 1.7 | 0.00 | 1.16 | 1.16 | 63 | 1006.9 |
| 20260508220738 | 80 | 92 | 0.0 | 1.7 | 0.00 | 1.16 | 1.16 | 64 | 1006.8 |
| 20260508220235 | 80 | 119 | 1.7 | 2.6 | 0.00 | 1.16 | 1.16 | 64 | 1006.8 |
| 20260508215731 | 80 | 137 | 3.5 | 4.3 | 0.00 | 1.16 | 1.16 | 64 | 1006.8 |
| 20260508215227 | 79 | 97 | 0.9 | 1.7 | 0.00 | 1.16 | 1.16 | 65 | 1006.6 |
| 20260508214725 | 79 | 133 | 0.9 | 4.3 | 0.00 | 1.16 | 1.16 | 65 | 1006.6 |
| 20260508214222 | 78 | 101 | 1.7 | 5.2 | 0.00 | 1.16 | 1.16 | 66 | 1006.6 |
| 20260508213718 | 78 | 128 | 0.9 | 1.7 | 0.00 | 1.16 | 1.16 | 65 | 1006.5 |
| 20260508213215 | 79 | 142 | 0.9 | 4.3 | 0.00 | 1.16 | 1.16 | 65 | 1006.6 |
| 20260508212712 | 79 | 97 | 0.9 | 0.9 | 0.00 | 1.16 | 1.16 | 64 | 1006.9 |
| 20260508212208 | 78 | 83 | 0.0 | 1.7 | 0.00 | 1.16 | 1.16 | 66 | 1006.6 |
| 20260508211704 | 79 | 108 | 4.3 | 6.1 | 0.00 | 1.16 | 1.16 | 64 | 1006.8 |
| 20260508211200 | 78 | 98 | 0.9 | 2.6 | 0.00 | 1.16 | 1.16 | 66 | 1007.2 |
| 20260508210657 | 79 | 95 | 2.6 | 5.2 | 0.00 | 1.16 | 1.16 | 64 | 1007.3 |
| 20260508210154 | 79 | 88 | 0.9 | 4.3 | 0.00 | 1.16 | 1.16 | 65 | 1007.6 |
| 20260508205651 | 78 | 130 | 0.9 | 2.6 | 0.00 | 1.16 | 1.16 | 64 | 1007.7 |
| 20260508205147 | 78 | 143 | 2.6 | 4.3 | 0.00 | 1.16 | 1.16 | 65 | 1007.7 |
| 20260508204644 | 78 | 101 | 0.9 | 4.3 | 0.00 | 1.16 | 1.16 | 66 | 1008.2 |
| 20260508204140 | 78 | 109 | 0.9 | 1.7 | 0.00 | 1.16 | 1.16 | 65 | 1008.3 |
| 20260508203636 | 79 | 82 | 0.0 | 1.7 | 0.00 | 1.16 | 1.16 | 65 | 1008.4 |
| 20260508203133 | 79 | 142 | 0.9 | 1.7 | 0.00 | 1.16 | 1.16 | 64 | 1008.4 |
| 20260508202629 | 79 | 75 | 0.0 | 4.3 | 0.00 | 1.16 | 1.16 | 64 | 1008.5 |
| 20260508202126 | 79 | 110 | 0.9 | 1.7 | 0.00 | 1.16 | 1.16 | 62 | 1008.6 |
| 20260508201623 | 79 | 71 | 0.0 | 0.9 | 0.00 | 1.16 | 1.16 | 64 | 1008.5 |
| 20260508201119 | 79 | 130 | 0.9 | 4.3 | 0.00 | 1.16 | 1.16 | 64 | 1008.5 |
| 20260508200616 | 79 | 74 | 0.9 | 1.7 | 0.00 | 1.16 | 1.16 | 63 | 1008.7 |
| 20260508200112 | 79 | 90 | 0.0 | 1.7 | 0.00 | 1.16 | 1.16 | 63 | 1008.4 |
| 20260508195609 | 79 | 95 | 0.9 | 2.6 | 0.00 | 1.16 | 1.16 | 62 | 1008.4 |
| 20260508195105 | 79 | 84 | 0.0 | 2.6 | 0.00 | 1.16 | 1.16 | 61 | 1008.6 |
| 20260508194602 | 79 | 151 | 1.7 | 2.6 | 0.00 | 1.16 | 1.16 | 61 | 1008.7 |
| 20260508194059 | 80 | 85 | 0.0 | 4.3 | 0.00 | 1.16 | 1.16 | 61 | 1008.7 |
| 20260508193555 | 79 | 73 | 1.7 | 2.6 | 0.00 | 1.16 | 1.16 | 61 | 1008.9 |
| 20260508193053 | 78 | 83 | 0.9 | 2.6 | 0.00 | 1.16 | 1.16 | 62 | 1008.8 |
| 20260508192549 | 79 | 81 | 0.9 | 2.6 | 0.00 | 1.16 | 1.16 | 62 | 1009.0 |
| 20260508192046 | 79 | 114 | 1.7 | 1.7 | 0.00 | 1.16 | 1.16 | 61 | 1008.7 |
| 20260508191543 | 78 | 107 | 1.7 | 2.6 | 0.00 | 1.16 | 1.16 | 60 | 1008.9 |
| 20260508191040 | 79 | 70 | 0.9 | 4.3 | 0.00 | 1.16 | 1.16 | 60 | 1009.2 |
| 20260508190537 | 79 | 76 | 0.0 | 1.7 | 0.00 | 1.16 | 1.16 | 60 | 1009.0 |
| 20260508190033 | 79 | 83 | 0.9 | 1.7 | 0.00 | 1.16 | 1.16 | 60 | 1009.1 |
| 20260508185531 | 79 | 79 | 0.0 | 2.6 | 0.00 | 1.16 | 1.16 | 62 | 1009.1 |
| 20260508185028 | 79 | 98 | 0.9 | 2.6 | 0.00 | 1.16 | 1.16 | 61 | 1009.2 |
| 20260508184526 | 78 | 67 | 1.7 | 1.7 | 0.00 | 1.16 | 1.16 | 59 | 1009.1 |
| 20260508184022 | 78 | 93 | 0.9 | 2.6 | 0.00 | 1.16 | 1.16 | 63 | 1009.2 |
| 20260508183519 | 77 | 86 | 0.9 | 1.7 | 0.00 | 1.16 | 1.16 | 62 | 1009.2 |
| 20260508183015 | 77 | 84 | 0.9 | 1.7 | 0.00 | 1.16 | 1.16 | 62 | 1009.4 |
| 20260508182511 | 77 | 58 | 1.7 | 2.6 | 0.00 | 1.16 | 1.16 | 62 | 1009.5 |
| 20260508182008 | 77 | 80 | 0.0 | 2.6 | 0.00 | 1.16 | 1.16 | 64 | 1009.7 |
| 20260508181503 | 78 | 85 | 0.0 | 4.3 | 0.00 | 1.16 | 1.16 | 62 | 1009.8 |
| 20260508181001 | 77 | 77 | 0.0 | 1.7 | 0.00 | 1.16 | 1.16 | 63 | 1009.9 |
| 20260508180458 | 77 | 81 | 0.0 | 1.7 | 0.00 | 1.16 | 1.16 | 63 | 1010.0 |
| 20260508175954 | 76 | 82 | 0.0 | 1.7 | 0.00 | 1.16 | 1.16 | 64 | 1010.0 |
| 20260508175450 | 75 | 85 | 0.0 | 1.7 | 0.00 | 1.16 | 1.16 | 64 | 1010.1 |
| 20260508174948 | 75 | 81 | 1.7 | 2.6 | 0.00 | 1.16 | 1.16 | 64 | 1010.2 |
| 20260508174445 | 75 | 81 | 0.0 | 1.7 | 0.00 | 1.16 | 1.16 | 64 | 1010.1 |
| 20260508173942 | 75 | 94 | 0.9 | 1.7 | 0.00 | 1.16 | 1.16 | 65 | 1010.2 |
| 20260508173439 | 75 | 77 | 0.0 | 0.9 | 0.00 | 1.16 | 1.16 | 65 | 1010.5 |
| 20260508172935 | 74 | 86 | 0.0 | 2.6 | 0.00 | 1.16 | 1.16 | 66 | 1010.7 |
| 20260508172433 | 74 | 96 | 0.9 | 0.9 | 0.00 | 1.16 | 1.16 | 67 | 1010.7 |
| 20260508171929 | 74 | 160 | 1.7 | 2.6 | 0.00 | 1.16 | 1.16 | 65 | 1010.6 |
| 20260508171425 | 73 | 115 | 2.6 | 4.3 | 0.00 | 1.16 | 1.16 | 66 | 1011.0 |
| 20260508170922 | 73 | 97 | 0.9 | 4.3 | 0.00 | 1.16 | 1.16 | 66 | 1011.1 |
| 20260508170419 | 73 | 90 | 1.7 | 4.3 | 0.00 | 1.16 | 1.16 | 68 | 1011.2 |
| 20260508165916 | 72 | 73 | 0.0 | 1.7 | 0.00 | 1.16 | 1.16 | 68 | 1011.4 |
| 20260508165414 | 72 | 79 | 0.0 | 1.7 | 0.00 | 1.16 | 1.16 | 68 | 1011.2 |
| 20260508164909 | 72 | 88 | 0.9 | 4.3 | 0.00 | 1.16 | 1.16 | 68 | 1011.3 |
| 20260508164407 | 72 | 90 | 0.0 | 1.7 | 0.00 | 1.16 | 1.16 | 69 | 1011.7 |
| 20260508163904 | 71 | 80 | 0.0 | 1.7 | 0.00 | 1.16 | 1.16 | 70 | 1011.6 |
| 20260508163402 | 70 | 134 | 0.9 | 1.7 | 0.00 | 1.16 | 1.16 | 72 | 1011.8 |
| 20260508162857 | 70 | 110 | 2.6 | 5.2 | 0.00 | 1.16 | 1.16 | 72 | 1011.9 |
| 20260508162355 | 69 | 107 | 0.9 | 6.1 | 0.00 | 1.16 | 1.16 | 74 | 1011.8 |
| 20260508161851 | 69 | 98 | 0.9 | 1.7 | 0.00 | 1.16 | 1.16 | 74 | 1012.1 |
| 20260508161349 | 68 | 87 | 0.9 | 2.6 | 0.00 | 1.16 | 1.16 | 74 | 1012.0 |
| 20260508160846 | 68 | 86 | 0.0 | 1.7 | 0.00 | 1.16 | 1.16 | 75 | 1011.9 |
| 20260508160345 | 68 | 124 | 0.9 | 4.3 | 0.00 | 1.16 | 1.16 | 75 | 1012.1 |
| 20260508155840 | 67 | 114 | 1.7 | 6.1 | 0.00 | 1.16 | 1.16 | 75 | 1011.9 |
| 20260508155338 | 67 | 135 | 0.9 | 1.7 | 0.00 | 1.16 | 1.16 | 80 | 1012.2 |
| 20260508154835 | 65 | 99 | 0.9 | 1.7 | 0.00 | 1.16 | 1.16 | 82 | 1012.1 |
| 20260508154332 | 64 | 80 | 0.0 | 2.6 | 0.00 | 1.16 | 1.16 | 85 | 1012.5 |
| 20260508153828 | 64 | 85 | 0.0 | 0.9 | 0.00 | 1.16 | 1.16 | 88 | 1012.4 |
| 20260508153326 | 63 | 77 | 0.9 | 1.7 | 0.00 | 1.16 | 1.16 | 91 | 1012.2 |
| 20260508152822 | 63 | 95 | 0.9 | 2.6 | 0.00 | 1.16 | 1.16 | 93 | 1012.1 |
| 20260508152319 | 63 | 113 | 1.7 | 1.7 | 0.00 | 1.16 | 1.16 | 95 | 1012.3 |
| 20260508151815 | 63 | 84 | 0.0 | 0.0 | 0.00 | 1.16 | 1.16 | 96 | 1012.3 |
| 20260508151312 | 63 | 82 | 0.9 | 1.7 | 0.00 | 1.16 | 1.16 | 96 | 1012.1 |
| 20260508150808 | 62 | 86 | 0.0 | 1.7 | 0.00 | 1.16 | 1.16 | 97 | 1012.6 |
| 20260508150305 | 62 | 85 | 0.0 | 0.0 | 0.00 | 1.16 | 1.16 | 97 | 1012.5 |
| 20260508145802 | 62 | 83 | 0.0 | 0.0 | 0.00 | 1.16 | 1.16 | 97 | 1012.5 |
| 20260508145257 | 62 | 99 | 0.0 | 0.9 | 0.00 | 1.16 | 1.16 | 97 | 1012.4 |
| 20260508144754 | 62 | 82 | 0.0 | 0.9 | 0.00 | 1.16 | 1.16 | 97 | 1012.5 |
| 20260508144252 | 62 | 77 | 0.0 | 1.7 | 0.00 | 1.16 | 1.16 | 97 | 1012.7 |
| 20260508143749 | 63 | 82 | 0.0 | 0.0 | 0.00 | 1.16 | 1.16 | 97 | 1012.7 |
| 20260508143246 | 61 | 84 | 0.0 | 0.9 | 0.00 | 1.16 | 1.16 | 97 | 1012.6 |
| 20260508142743 | 62 | 83 | 0.0 | 0.9 | 0.00 | 1.16 | 1.16 | 97 | 1012.6 |
| 20260508142240 | 63 | 69 | 0.0 | 0.9 | 0.00 | 1.16 | 1.16 | 97 | 1012.7 |
| 20260508141736 | 61 | 92 | 0.0 | 0.9 | 0.00 | 1.16 | 1.16 | 97 | 1012.6 |
| 20260508141234 | 61 | 86 | 0.0 | 0.9 | 0.00 | 1.16 | 1.16 | 97 | 1012.6 |
| 20260508140731 | 61 | 97 | 0.0 | 0.9 | 0.00 | 1.16 | 1.16 | 97 | 1013.0 |
| 20260508140227 | 61 | 80 | 0.0 | 0.0 | 0.00 | 1.16 | 1.16 | 97 | 1013.0 |
| 20260508135724 | 61 | 81 | 0.0 | 0.9 | 0.00 | 1.16 | 1.16 | 97 | 1012.8 |
| 20260508135219 | 61 | 92 | 1.7 | 1.7 | 0.00 | 1.16 | 1.16 | 97 | 1012.8 |
| 20260508134710 | 61 | 80 | 0.0 | 0.0 | 0.00 | 1.16 | 1.16 | 97 | 1013.0 |
| 20260508134207 | 60 | 79 | 0.0 | 0.0 | 0.00 | 1.16 | 1.16 | 97 | 1012.7 |
| 20260508133704 | 60 | 71 | 0.0 | 0.9 | 0.00 | 1.16 | 1.16 | 97 | 1012.8 |
| 20260508133202 | 60 | 84 | 0.0 | 0.0 | 0.00 | 1.16 | 1.16 | 97 | 1013.3 |
| 20260508132659 | 61 | 82 | 0.0 | 0.0 | 0.00 | 1.16 | 1.16 | 97 | 1012.7 |
| 20260508132156 | 61 | 77 | 0.0 | 0.0 | 0.00 | 1.16 | 1.16 | 97 | 1012.8 |
| 20260508131651 | 60 | 89 | 0.0 | 0.9 | 0.00 | 1.16 | 1.16 | 97 | 1012.3 |
| 20260508131148 | 61 | 86 | 0.0 | 0.9 | 0.00 | 1.16 | 1.16 | 97 | 1012.4 |
| 20260508130645 | 60 | 114 | 0.0 | 0.9 | 0.00 | 1.16 | 1.16 | 97 | 1012.3 |
| 20260508130142 | 60 | 89 | 0.0 | 0.0 | 0.00 | 1.16 | 1.16 | 97 | 1012.8 |
| 20260508125638 | 60 | 86 | 0.0 | 0.0 | 0.00 | 1.16 | 1.16 | 97 | 1012.8 |
| 20260508125135 | 60 | 86 | 0.0 | 0.0 | 0.00 | 1.16 | 1.16 | 97 | 1012.8 |
| 20260508124633 | 60 | 83 | 0.0 | 0.0 | 0.00 | 1.16 | 1.16 | 97 | 1012.8 |
| 20260508124130 | 60 | 77 | 0.0 | 0.0 | 0.00 | 1.16 | 1.16 | 97 | 1013.6 |
| 20260508123628 | 60 | 77 | 0.0 | 0.0 | 0.00 | 1.16 | 1.16 | 97 | 1013.4 |
| 20260508123125 | 60 | 77 | 0.0 | 0.0 | 0.00 | 1.16 | 1.16 | 97 | 1013.1 |
| 20260508122621 | 60 | 81 | 0.0 | 0.0 | 0.00 | 1.16 | 1.16 | 97 | 1013.3 |
| 20260508122118 | 60 | 81 | 0.0 | 0.0 | 0.00 | 1.16 | 1.16 | 97 | 1013.1 |
| 20260508121617 | 59 | 81 | 0.0 | 0.0 | 0.00 | 1.16 | 1.16 | 97 | 1013.1 |
| 20260508121114 | 60 | 96 | 0.0 | 0.0 | 0.00 | 1.16 | 1.16 | 96 | 1013.0 |
| 20260508120611 | 60 | 86 | 0.0 | 0.9 | 0.00 | 1.16 | 1.16 | 96 | 1012.8 |
| 20260508120110 | 60 | 90 | 0.0 | 0.9 | 0.07 | 1.16 | 1.16 | 96 | 1013.0 |
| 20260508115607 | 60 | 79 | 0.0 | 0.0 | 0.07 | 1.16 | 1.16 | 96 | 1013.1 |
| 20260508115103 | 59 | 74 | 0.0 | 0.0 | 0.00 | 1.15 | 1.15 | 96 | 1013.2 |
| 20260508114601 | 59 | 81 | 0.0 | 0.0 | 0.05 | 1.15 | 1.15 | 96 | 1012.8 |
| 20260508114056 | 59 | 75 | 0.0 | 0.0 | 0.42 | 1.15 | 1.15 | 96 | 1012.8 |
| 20260508113554 | 59 | 75 | 0.0 | 0.0 | 1.44 | 1.14 | 1.14 | 96 | 1012.3 |
| 20260508113052 | 60 | 82 | 0.0 | 0.0 | 1.09 | 1.07 | 1.07 | 95 | 1012.8 |
| 20260508112548 | 59 | 82 | 0.0 | 0.0 | 0.07 | 0.90 | 0.90 | 95 | 1012.7 |
| 20260508112045 | 59 | 85 | 0.0 | 1.7 | 0.00 | 0.89 | 0.89 | 95 | 1012.1 |
| 20260508111542 | 59 | 83 | 0.0 | 0.9 | 0.07 | 0.89 | 0.89 | 95 | 1012.7 |
| 20260508111039 | 60 | 82 | 0.0 | 0.9 | 0.19 | 0.89 | 0.89 | 94 | 1012.4 |
| 20260508110537 | 60 | 85 | 0.0 | 0.9 | 0.47 | 0.88 | 0.88 | 94 | 1012.7 |
| 20260508110033 | 60 | 78 | 0.0 | 0.0 | 0.54 | 0.85 | 0.85 | 94 | 1013.0 |
| 20260508105527 | 60 | 88 | 0.0 | 0.0 | 0.90 | 0.80 | 0.80 | 93 | 1012.7 |
| 20260508105025 | 60 | 91 | 0.9 | 1.7 | 1.96 | 0.75 | 0.75 | 93 | 1012.8 |
| 20260508104523 | 60 | 83 | 0.0 | 0.9 | 2.22 | 0.64 | 0.64 | 92 | 1013.7 |
| 20260508104019 | 61 | 74 | 0.0 | 0.9 | 0.71 | 0.39 | 0.39 | 91 | 1013.2 |
| 20260508103516 | 61 | 82 | 0.0 | 0.0 | 0.42 | 0.27 | 0.27 | 90 | 1013.1 |
| 20260508103014 | 61 | 82 | 0.0 | 0.0 | 1.58 | 0.27 | 0.27 | 89 | 1012.7 |
| 20260508102511 | 62 | 68 | 0.9 | 0.9 | 1.09 | 0.18 | 0.18 | 88 | 1012.5 |
| 20260508102009 | 62 | 176 | 0.9 | 4.3 | 0.00 | 0.00 | 0.00 | 88 | 1013.7 |
| 20260508101506 | 61 | 55 | 0.0 | 0.9 | 0.00 | 0.00 | 0.00 | 88 | 1012.2 |
| 20260508101003 | 61 | 88 | 0.9 | 0.9 | 0.00 | 0.00 | 0.00 | 89 | 1011.6 |
| 20260508100501 | 61 | 85 | 0.0 | 0.0 | 0.00 | 0.00 | 0.00 | 89 | 1011.8 |
| 20260508095957 | 61 | 91 | 0.0 | 0.9 | 0.00 | 0.00 | 0.00 | 90 | 1011.6 |
| 20260508095455 | 61 | 80 | 0.0 | 0.9 | 0.00 | 0.00 | 0.00 | 91 | 1011.8 |
| 20260508094952 | 61 | 85 | 0.0 | 0.0 | 0.00 | 0.00 | 0.00 | 91 | 1011.6 |
| 20260508094448 | 61 | 91 | 0.0 | 0.9 | 0.00 | 0.00 | 0.00 | 91 | 1011.6 |
| 20260508093945 | 61 | 142 | 1.7 | 1.7 | 0.00 | 0.00 | 0.00 | 91 | 1011.8 |
| 20260508093442 | 60 | 89 | 0.9 | 0.9 | 0.00 | 0.00 | 0.00 | 91 | 1012.1 |
| 20260508092940 | 61 | 86 | 0.0 | 0.9 | 0.00 | 0.00 | 0.00 | 91 | 1011.9 |
| 20260508092438 | 61 | 84 | 0.0 | 0.0 | 0.00 | 0.00 | 0.00 | 91 | 1011.9 |
| 20260508091936 | 60 | 84 | 0.0 | 0.0 | 0.00 | 0.00 | 0.00 | 91 | 1012.1 |
| 20260508091432 | 61 | 72 | 0.0 | 0.0 | 0.00 | 0.00 | 0.00 | 90 | 1012.5 |
| 20260508090930 | 61 | 85 | 0.0 | 0.9 | 0.00 | 0.00 | 0.00 | 90 | 1012.0 |
| 20260508090429 | 61 | 88 | 0.0 | 0.9 | 0.00 | 0.00 | 0.00 | 89 | 1011.9 |
| 20260508085924 | 61 | 75 | 0.0 | 0.0 | 0.00 | 0.00 | 0.00 | 88 | 1012.6 |
| 20260508085421 | 61 | 75 | 0.0 | 0.0 | 0.00 | 0.00 | 0.00 | 87 | 1012.6 |
| 20260508084918 | 61 | 75 | 0.0 | 0.0 | 0.00 | 0.00 | 0.00 | 87 | 1012.5 |
| 20260508084414 | 61 | 75 | 0.0 | 0.0 | 0.00 | 0.00 | 0.00 | 87 | 1012.4 |
| 20260508083912 | 61 | 75 | 0.0 | 0.0 | 0.00 | 0.00 | 0.00 | 87 | 1012.8 |
| 20260508083409 | 62 | 84 | 0.0 | 0.0 | 0.00 | 0.00 | 0.00 | 86 | 1012.4 |
| 20260508082909 | 62 | 75 | 0.0 | 0.9 | 0.00 | 0.00 | 0.00 | 86 | 1012.0 |
| 20260508082407 | 62 | 112 | 1.7 | 1.7 | 0.00 | 0.00 | 0.00 | 85 | 1012.5 |
| 20260508081904 | 62 | 126 | 0.9 | 1.7 | 0.00 | 0.00 | 0.00 | 84 | 1012.1 |
| 20260508081401 | 63 | 97 | 0.9 | 0.9 | 0.00 | 0.00 | 0.00 | 82 | 1013.0 |
| 20260508080857 | 63 | 86 | 0.0 | 2.6 | 0.00 | 0.00 | 0.00 | 80 | 1012.5 |
| 20260508080356 | 63 | 95 | 0.9 | 1.7 | 0.00 | 0.00 | 0.00 | 80 | 1013.4 |
| 20260508075852 | 62 | 87 | 0.0 | 0.9 | 0.00 | 0.00 | 0.00 | 80 | 1013.9 |
| 20260508075349 | 62 | 78 | 0.0 | 0.0 | 0.00 | 0.00 | 0.00 | 81 | 1013.9 |
| 20260508074847 | 62 | 87 | 0.0 | 0.0 | 0.00 | 0.00 | 0.00 | 81 | 1013.7 |
| 20260508074343 | 62 | 88 | 0.0 | 0.0 | 0.00 | 0.00 | 0.00 | 81 | 1013.9 |
| 20260508073840 | 62 | 86 | 0.0 | 0.0 | 0.00 | 0.00 | 0.00 | 81 | 1013.4 |
| 20260508073338 | 62 | 86 | 0.0 | 0.0 | 0.00 | 0.00 | 0.00 | 81 | 1013.6 |
| 20260508072835 | 62 | 86 | 0.0 | 0.0 | 0.00 | 0.00 | 0.00 | 81 | 1013.5 |
| 20260508072331 | 62 | 86 | 0.0 | 0.0 | 0.00 | 0.00 | 0.00 | 81 | 1013.2 |
| 20260508071828 | 61 | 86 | 0.0 | 0.0 | 0.00 | 0.00 | 0.00 | 82 | 1013.2 |
| 20260508071327 | 61 | 86 | 0.0 | 0.0 | 0.00 | 0.00 | 0.00 | 82 | 1013.4 |
| 20260508070824 | 61 | 86 | 0.0 | 0.0 | 0.00 | 0.00 | 0.00 | 82 | 1013.4 |
| 20260508070322 | 61 | 86 | 0.0 | 0.0 | 0.00 | 0.00 | 0.00 | 82 | 1013.3 |
| 20260508065819 | 61 | 86 | 0.0 | 0.0 | 0.00 | 0.00 | 0.00 | 82 | 1013.5 |
| 20260508065317 | 61 | 86 | 0.0 | 0.0 | 0.00 | 0.00 | 0.00 | 82 | 1013.4 |
| 20260508064815 | 61 | 86 | 0.0 | 0.0 | 0.00 | 0.00 | 0.00 | 82 | 1013.8 |
| 20260508064313 | 61 | 86 | 0.0 | 0.0 | 0.00 | 0.00 | 0.00 | 81 | 1014.1 |
| 20260508063810 | 61 | 86 | 0.0 | 0.0 | 0.00 | 0.00 | 0.00 | 81 | 1014.3 |
| 20260508063308 | 61 | 86 | 0.0 | 0.0 | 0.00 | 0.00 | 0.00 | 81 | 1014.3 |
| 20260508062805 | 61 | 86 | 0.0 | 0.0 | 0.00 | 0.00 | 0.00 | 81 | 1014.1 |
| 20260508062306 | 61 | 86 | 0.0 | 0.0 | 0.00 | 0.00 | 0.00 | 80 | 1014.0 |
| 20260508061759 | 61 | 86 | 0.0 | 0.0 | 0.00 | 0.00 | 0.00 | 80 | 1014.0 |
| 20260508061256 | 61 | 86 | 0.0 | 0.0 | 0.00 | 0.00 | 0.00 | 80 | 1013.9 |
| 20260508060753 | 61 | 86 | 0.0 | 0.0 | 0.00 | 0.00 | 0.00 | 80 | 1013.8 |
| 20260508060251 | 61 | 86 | 0.0 | 0.0 | 0.00 | 0.00 | 0.00 | 80 | 1013.9 |
| 20260508055746 | 61 | 86 | 0.0 | 0.0 | 0.00 | 0.00 | 0.00 | 79 | 1014.0 |
| 20260508055243 | 61 | 86 | 0.0 | 0.0 | 0.00 | 0.00 | 0.00 | 79 | 1013.7 |
| 20260508054739 | 61 | 86 | 0.0 | 0.0 | 0.00 | 0.00 | 0.00 | 79 | 1014.0 |
| 20260508054238 | 61 | 86 | 0.0 | 0.0 | 0.00 | 0.00 | 0.00 | 79 | 1014.0 |
| 20260508053734 | 61 | 86 | 0.0 | 0.0 | 0.00 | 0.00 | 0.00 | 79 | 1014.0 |
| 20260508053231 | 61 | 86 | 0.0 | 0.0 | 0.00 | 0.00 | 0.00 | 79 | 1013.7 |
| 20260508052728 | 62 | 86 | 0.0 | 0.0 | 0.00 | 0.00 | 0.00 | 78 | 1014.0 |
| 20260508052226 | 62 | 86 | 0.0 | 0.0 | 0.00 | 0.00 | 0.00 | 78 | 1014.2 |
| 20260508051722 | 62 | 86 | 0.0 | 0.0 | 0.00 | 0.00 | 0.00 | 77 | 1014.1 |
| 20260508051217 | 62 | 86 | 0.0 | 0.0 | 0.00 | 0.00 | 0.00 | 77 | 1014.2 |
| 20260508050714 | 62 | 86 | 0.0 | 0.0 | 0.00 | 0.00 | 0.00 | 76 | 1014.1 |
| 20260508050212 | 62 | 86 | 0.0 | 0.0 | 0.00 | 0.00 | 0.00 | 76 | 1013.9 |
| 20260508045706 | 62 | 86 | 0.0 | 0.0 | 0.00 | 0.00 | 0.00 | 76 | 1014.0 |
| 20260508045205 | 62 | 86 | 0.0 | 0.0 | 0.00 | 0.00 | 0.00 | 77 | 1014.1 |
| 20260508044702 | 62 | 86 | 0.0 | 0.0 | 0.00 | 0.00 | 0.00 | 77 | 1014.2 |
| 20260508044158 | 62 | 86 | 0.0 | 0.0 | 0.00 | 0.00 | 0.00 | 76 | 1014.0 |